Yankton, SD

1:35 AM CST on February 22, 2017 (GMT -0600)
Gurney Municipal

Weather History for KYKN - January, 2013

Change the Weather History Date:

Thursday, January 31, 2013

  Actual Average Record
Temperature  
Mean Temperature 0 °F -  
Max Temperature 3 °F 31 °F 63 °F (1989)
Min Temperature -4 °F 7 °F -21 °F (1966)
Degree Days  
Heating Degree Days 66    
Moisture  
Dew Point -9 °F    
Average Humidity 68    
Maximum Humidity 85    
Minimum Humidity 56    
Precipitation  
Precipitation 0.00 in - - ()
Sea Level Pressure  
Sea Level Pressure 30.21 in    
Wind  
Wind Speed 17 mph (WNW)    
Max Wind Speed 30 mph    
Max Gust Speed 40 mph    
Visibility 9 miles    
Events      
Averages and records for this station are not official NWS values.
T = Trace of Precipitation, MM = Missing Value Source: NWS Daily Summary

Daily Weather History Graph

Daily Weather History Graph

Search for Another Location

Airport or City:

Trip Planner

Search our weather history database for the weather conditions in past years. The results will help you decide how hot, cold, wet, or windy it might be!

Date:

Astronomy

Jan. 31, 2013 Rise Set
Actual Time 7:45 AM CST 5:41 PM CST
Civil Twilight 7:15 AM CST 6:11 PM CST
Nautical Twilight 6:41 AM CST 6:45 PM CST
Astronomical Twilight 6:07 AM CST 7:18 PM CST
Moon 10:54 PM CST (1/31) 9:37 AM CST (1/31)
Length of Visible Light 10h 56m
Length of Day
9h 56m
Waning Gibbous, 79% of the Moon is Illuminated
Jan 31
Waning Gibbous
Feb 3
Last Quarter
Feb 10
New
Feb 17
First Quarter
Feb 25
Full

Hourly Weather History & Observations

Time (CST) Temp. Windchill Dew Point Humidity Pressure Visibility Wind Dir Wind Speed Gust Speed Precip Events Conditions
12:15 AM 3.2 °F -15.3 °F -4.0 °F 72% 29.95 in 10.0 mi WNW 15.0 mph - N/A   Clear
12:35 AM 3.2 °F -15.3 °F -7.6 °F 61% 29.95 in 10.0 mi WNW 15.0 mph 25.3 mph N/A   Clear
12:55 AM 3.2 °F -14.6 °F -5.8 °F 66% 29.96 in 10.0 mi NW 13.8 mph 20.7 mph N/A   Clear
1:15 AM 1.4 °F -16.1 °F -7.6 °F 66% 29.96 in 10.0 mi NW 12.7 mph 20.7 mph N/A   Clear
1:35 AM 1.4 °F -16.1 °F -5.8 °F 72% 29.96 in 10.0 mi NW 12.7 mph - N/A   Clear
1:55 AM 1.4 °F -18.2 °F -7.6 °F 66% 29.97 in 10.0 mi WNW 16.1 mph - N/A   Clear
2:15 AM 1.4 °F -17.6 °F -5.8 °F 72% 29.97 in 10.0 mi WNW 15.0 mph 19.6 mph N/A   Scattered Clouds
2:35 AM 1.4 °F -18.8 °F -7.6 °F 66% 29.97 in 10.0 mi WNW 17.3 mph 20.7 mph N/A   Overcast
2:55 AM 1.4 °F -17.6 °F -7.6 °F 66% 29.97 in 10.0 mi WNW 15.0 mph 19.6 mph N/A   Mostly Cloudy
3:15 AM 1.4 °F -19.9 °F -7.6 °F 66% 29.99 in 10.0 mi WNW 19.6 mph 23.0 mph N/A   Partly Cloudy
3:35 AM 1.4 °F -19.9 °F -7.6 °F 66% 29.99 in 10.0 mi WNW 19.6 mph 24.2 mph N/A   Mostly Cloudy
3:55 AM 1.4 °F -18.8 °F -7.6 °F 66% 30.00 in 10.0 mi WNW 17.3 mph - N/A   Scattered Clouds
4:15 AM 1.4 °F -19.4 °F -7.6 °F 66% 30.01 in 10.0 mi NW 18.4 mph 21.9 mph N/A   Clear
4:35 AM 1.4 °F -18.8 °F -9.4 °F 61% 30.02 in 10.0 mi WNW 17.3 mph 23.0 mph N/A   Clear
4:55 AM 1.4 °F -21.0 °F -7.6 °F 66% 30.03 in 10.0 mi WNW 21.9 mph 25.3 mph N/A   Clear
5:15 AM -0.4 °F -21.7 °F -9.4 °F 66% 30.04 in 10.0 mi NW 18.4 mph - N/A   Clear
5:35 AM -0.4 °F -22.3 °F -7.6 °F 72% 30.05 in 10.0 mi WNW 19.6 mph 25.3 mph N/A   Clear
5:55 AM -0.4 °F -22.3 °F -9.4 °F 66% 30.05 in 10.0 mi WNW 19.6 mph - N/A   Clear
6:15 AM -0.4 °F -20.5 °F -7.6 °F 72% 30.07 in 7.0 mi NW 16.1 mph 21.9 mph N/A   Clear
6:35 AM -0.4 °F -19.9 °F -5.8 °F 78% 30.08 in 8.0 mi WNW 15.0 mph - N/A   Clear
6:55 AM -0.4 °F -21.2 °F -7.6 °F 72% 30.08 in 5.0 mi NW 17.3 mph - N/A   Partly Cloudy
7:15 AM -0.4 °F -20.5 °F -7.6 °F 72% 30.10 in 7.0 mi NW 16.1 mph 23.0 mph N/A   Scattered Clouds
7:35 AM -0.4 °F -23.8 °F -7.6 °F 72% 30.11 in 4.0 mi NW 23.0 mph 27.6 mph N/A   Partly Cloudy
7:55 AM -2.2 °F -26.2 °F -7.6 °F 78% 30.12 in 3.0 mi NW 23.0 mph - N/A   Partly Cloudy
8:15 AM -2.2 °F -25.7 °F -9.4 °F 71% 30.14 in 7.0 mi NW 21.9 mph 27.6 mph N/A   Clear
8:35 AM -2.2 °F -26.2 °F -9.4 °F 71% 30.16 in 10.0 mi NW 23.0 mph 26.5 mph N/A   Partly Cloudy
8:55 AM -2.2 °F -28.8 °F -7.6 °F 78% 30.17 in 7.0 mi WNW 29.9 mph 34.5 mph N/A   Partly Cloudy
9:15 AM -2.2 °F -28.0 °F - N/A% 30.19 in 10.0 mi NW 27.6 mph 38.0 mph N/A   Clear
9:35 AM -2.2 °F -26.2 °F -9.4 °F 71% 30.21 in 7.0 mi NW 23.0 mph 32.2 mph N/A   Clear
9:55 AM -2.2 °F -28.8 °F -7.6 °F 78% 30.22 in 10.0 mi NW 29.9 mph 40.3 mph N/A   Clear
10:15 AM -0.4 °F -24.3 °F -9.4 °F 66% 30.23 in 8.0 mi WNW 24.2 mph 33.4 mph N/A   Clear
10:35 AM -0.4 °F -24.7 °F -7.6 °F 72% 30.24 in 2.5 mi WNW 25.3 mph 28.8 mph N/A   Mostly Cloudy
10:55 AM -0.4 °F -23.8 °F -9.4 °F 66% 30.26 in 3.0 mi WNW 23.0 mph 29.9 mph N/A   Mostly Cloudy
11:15 AM -0.4 °F -22.8 °F -11.2 °F 60% 30.27 in 7.0 mi WNW 20.7 mph 28.8 mph N/A   Scattered Clouds
11:35 AM -0.4 °F -23.8 °F -7.6 °F 72% 30.28 in 10.0 mi WNW 23.0 mph 29.9 mph N/A   Clear
11:55 AM -0.4 °F -25.2 °F -9.4 °F 66% 30.28 in 10.0 mi WNW 26.5 mph 33.4 mph N/A   Clear
12:15 PM -0.4 °F -25.6 °F -9.4 °F 66% 30.28 in 10.0 mi WNW 27.6 mph 33.4 mph N/A   Clear
12:35 PM -0.4 °F -25.2 °F -9.4 °F 66% 30.28 in 10.0 mi WNW 26.5 mph 34.5 mph N/A   Clear
12:55 PM 1.4 °F -22.3 °F -9.4 °F 61% 30.29 in 10.0 mi NW 25.3 mph 36.8 mph N/A   Clear
1:15 PM 1.4 °F -22.3 °F -7.6 °F 66% 30.30 in 10.0 mi WNW 25.3 mph 34.5 mph N/A   Clear
1:35 PM 1.4 °F -22.3 °F -9.4 °F 61% 30.30 in 10.0 mi WNW 25.3 mph 33.4 mph N/A   Clear
1:55 PM 1.4 °F -22.3 °F -9.4 °F 61% 30.30 in 8.0 mi WNW 25.3 mph 36.8 mph N/A   Partly Cloudy
2:15 PM 1.4 °F -21.9 °F -9.4 °F 61% 30.30 in 10.0 mi WNW 24.2 mph 31.1 mph N/A   Partly Cloudy
2:35 PM -0.4 °F -23.8 °F -11.2 °F 60% 30.31 in 10.0 mi NW 23.0 mph 27.6 mph N/A   Clear
2:55 PM 1.4 °F -22.3 °F -9.4 °F 61% 30.31 in 10.0 mi WNW 25.3 mph 29.9 mph N/A   Clear
3:15 PM 1.4 °F -21.9 °F -9.4 °F 61% 30.31 in 10.0 mi WNW 24.2 mph - N/A   Clear
3:35 PM 1.4 °F -20.5 °F -11.2 °F 56% 30.31 in 10.0 mi WNW 20.7 mph 26.5 mph N/A   Clear
3:55 PM 1.4 °F -21.9 °F -9.4 °F 61% 30.32 in 10.0 mi WNW 24.2 mph 27.6 mph N/A   Clear
4:15 PM 1.4 °F -19.9 °F -11.2 °F 56% 30.32 in 10.0 mi WNW 19.6 mph 25.3 mph N/A   Clear
4:35 PM -0.4 °F -21.7 °F -9.4 °F 66% 30.32 in 10.0 mi WNW 18.4 mph 23.0 mph N/A   Clear
4:55 PM -0.4 °F -23.3 °F -11.2 °F 60% 30.32 in 10.0 mi WNW 21.9 mph 26.5 mph N/A   Clear
5:15 PM -0.4 °F -20.5 °F -11.2 °F 60% 30.33 in 10.0 mi WNW 16.1 mph 25.3 mph N/A   Clear
5:35 PM -0.4 °F -21.2 °F -11.2 °F 60% 30.33 in 10.0 mi WNW 17.3 mph 23.0 mph N/A   Clear
5:55 PM -2.2 °F -22.2 °F -11.2 °F 66% 30.33 in 10.0 mi WNW 15.0 mph - N/A   Clear
6:15 PM -2.2 °F -21.5 °F -9.4 °F 71% 30.34 in 10.0 mi WNW 13.8 mph 17.3 mph N/A   Clear
6:35 PM -2.2 °F -22.2 °F -9.4 °F 71% 30.35 in 10.0 mi WNW 15.0 mph - N/A   Clear
6:55 PM -2.2 °F -20.7 °F -9.4 °F 71% 30.36 in 10.0 mi WNW 12.7 mph - N/A   Clear
7:15 PM -2.2 °F -18.9 °F -5.8 °F 85% 30.36 in 10.0 mi WNW 10.4 mph - N/A   Clear
7:35 PM -2.2 °F -19.9 °F -11.2 °F 66% 30.36 in 10.0 mi WNW 11.5 mph - N/A   Clear
7:55 PM -2.2 °F -19.9 °F -7.6 °F 78% 30.36 in 10.0 mi WNW 11.5 mph - N/A   Clear
8:15 PM -2.2 °F -20.7 °F -11.2 °F 66% 30.36 in 10.0 mi WNW 12.7 mph - N/A   Clear
8:35 PM -2.2 °F -16.8 °F -7.6 °F 78% 30.36 in 10.0 mi West 8.1 mph - N/A   Clear
8:55 PM -2.2 °F -15.6 °F -9.4 °F 71% 30.36 in 10.0 mi WNW 6.9 mph - N/A   Clear
9:15 PM -2.2 °F -12.5 °F -9.4 °F 71% 30.36 in 10.0 mi WNW 4.6 mph - N/A   Clear
9:35 PM -2.2 °F -12.5 °F -9.4 °F 71% 30.36 in 10.0 mi West 4.6 mph - N/A   Clear
9:55 PM -2.2 °F -10.4 °F -9.4 °F 71% 30.35 in 10.0 mi West 3.5 mph - N/A   Clear
10:15 PM -4.0 °F -12.4 °F -9.4 °F 78% 30.35 in 10.0 mi WNW 3.5 mph - N/A   Clear
10:35 PM -4.0 °F -14.6 °F -11.2 °F 71% 30.34 in 10.0 mi West 4.6 mph - N/A   Clear
10:55 PM -4.0 °F -14.6 °F -9.4 °F 78% 30.35 in 10.0 mi SW 4.6 mph - N/A   Clear
11:15 PM -4.0 °F -14.6 °F -9.4 °F 78% 30.35 in 10.0 mi WSW 4.6 mph - N/A   Clear
11:35 PM -4.0 °F -12.4 °F -11.2 °F 71% 30.35 in 10.0 mi WSW 3.5 mph - N/A   Clear